| time (UTC) | temp C | wind direction | speed KPH | gust KPH | rain 1hr cm | rain 24hr cm | rain mn cm | humidity % | barometer mb |
| 20260510104603 | 20 | 227 | 3.2 | 11.3 | 0.00 | 0.00 | 0.00 | 79 | 1008.9 |
| 20260510103054 | 20 | 177 | 3.2 | 11.3 | 0.00 | 0.00 | 0.00 | 79 | 1008.7 |
| 20260510101553 | 20 | 191 | 6.4 | 11.3 | 0.00 | 0.00 | 0.00 | 79 | 1008.5 |
| 20260510094652 | 20 | 181 | 8.0 | 17.7 | 0.00 | 0.00 | 0.00 | 79 | 1008.4 |
| 20260510093112 | 19 | 171 | 4.8 | 12.9 | 0.00 | 0.00 | 0.00 | 80 | 1008.3 |
| 20260510091549 | 19 | 166 | 6.4 | 12.9 | 0.00 | 0.00 | 0.00 | 80 | 1008.3 |
| 20260510090036 | 19 | 181 | 6.4 | 12.9 | 0.00 | 0.00 | 0.00 | 80 | 1008.4 |
| 20260510084535 | 19 | 169 | 6.4 | 12.9 | 0.00 | 0.00 | 0.00 | 79 | 1008.2 |
| 20260510083034 | 19 | 174 | 6.4 | 11.3 | 0.00 | 0.00 | 0.00 | 79 | 1008.0 |
| 20260510081532 | 19 | 175 | 6.4 | 11.3 | 0.00 | 0.00 | 0.00 | 79 | 1008.2 |
| 20260510080028 | 20 | 180 | 6.4 | 9.7 | 0.00 | 0.00 | 0.00 | 77 | 1008.2 |
| 20260510074527 | 20 | 181 | 6.4 | 11.3 | 0.00 | 0.00 | 0.00 | 77 | 1008.3 |
| 20260510073033 | 20 | 205 | 4.8 | 11.3 | 0.00 | 0.00 | 0.00 | 77 | 1008.4 |
| 20260510071623 | 20 | 205 | 6.4 | 12.9 | 0.00 | 0.00 | 0.00 | 77 | 1008.6 |
| 20260510070017 | 20 | 178 | 4.8 | 9.7 | 0.00 | 0.00 | 0.00 | 77 | 1008.7 |
| 20260510064506 | 20 | 170 | 4.8 | 11.3 | 0.00 | 0.00 | 0.00 | 76 | 1008.7 |
| 20260510063005 | 20 | 202 | 6.4 | 11.3 | 0.00 | 0.00 | 0.00 | 76 | 1008.9 |
| 20260510061501 | 21 | 172 | 4.8 | 11.3 | 0.00 | 0.00 | 0.00 | 75 | 1009.0 |
| 20260510060101 | 21 | 191 | 4.8 | 12.9 | 0.00 | 0.00 | 0.00 | 74 | 1009.0 |
| 20260510054556 | 21 | 171 | 9.7 | 16.1 | 0.00 | 0.00 | 0.00 | 73 | 1009.0 |
| 20260510053100 | 22 | 156 | 9.7 | 16.1 | 0.00 | 0.00 | 0.00 | 72 | 1009.1 |
| 20260510051553 | 22 | 168 | 6.4 | 11.3 | 0.00 | 0.00 | 0.00 | 72 | 1009.1 |
| 20260510050036 | 22 | 174 | 8.0 | 14.5 | 0.00 | 0.00 | 0.00 | 71 | 1009.1 |
| 20260510044535 | 22 | 165 | 8.0 | 14.5 | 0.00 | 0.00 | 0.00 | 72 | 1009.1 |
| 20260510043042 | 22 | 173 | 8.0 | 12.9 | 0.00 | 0.00 | 0.00 | 72 | 1009.2 |
| 20260510041531 | 22 | 178 | 4.8 | 8.0 | 0.00 | 0.00 | 0.00 | 70 | 1009.2 |
| 20260510040036 | 22 | 192 | 4.8 | 8.0 | 0.00 | 0.00 | 0.00 | 69 | 1009.1 |
| 20260510034524 | 23 | 169 | 3.2 | 8.0 | 0.00 | 0.00 | 0.00 | 67 | 1009.0 |
| 20260510033123 | 23 | 175 | 4.8 | 11.3 | 0.00 | 0.00 | 0.00 | 65 | 1009.0 |
| 20260510031522 | 24 | 174 | 6.4 | 12.9 | 0.00 | 0.00 | 0.00 | 63 | 1008.8 |
| 20260510030005 | 24 | 149 | 6.4 | 11.3 | 0.00 | 0.00 | 0.00 | 62 | 1008.7 |
| 20260510024502 | 25 | 162 | 4.8 | 9.7 | 0.00 | 0.00 | 0.00 | 60 | 1008.6 |
| 20260510023102 | 25 | 153 | 4.8 | 9.7 | 0.00 | 0.00 | 0.00 | 58 | 1008.5 |
| 20260510021559 | 26 | 134 | 3.2 | 8.0 | 0.00 | 0.00 | 0.00 | 56 | 1008.3 |
| 20260510020059 | 26 | 147 | 3.2 | 6.4 | 0.00 | 0.00 | 0.00 | 54 | 1008.1 |
| 20260510014556 | 27 | 155 | 3.2 | 8.0 | 0.00 | 0.00 | 0.00 | 51 | 1008.0 |
| 20260510013056 | 27 | 167 | 3.2 | 8.0 | 0.00 | 0.00 | 0.00 | 48 | 1007.8 |
| 20260510011555 | 28 | 161 | 3.2 | 11.3 | 0.00 | 0.00 | 0.00 | 45 | 1007.6 |
| 20260510010054 | 30 | 161 | 4.8 | 9.7 | 0.00 | 0.00 | 0.00 | 41 | 1007.6 |
| 20260510004543 | 30 | 162 | 8.0 | 14.5 | 0.00 | 0.00 | 0.00 | 37 | 1007.6 |
| 20260510003138 | 30 | 155 | 8.0 | 14.5 | 0.00 | 0.00 | 0.00 | 37 | 1007.5 |
| 20260510001542 | 31 | 126 | 6.4 | 16.1 | 0.00 | 0.00 | 0.00 | 38 | 1007.3 |
| 20260510000047 | 31 | 157 | 11.3 | 22.5 | 0.00 | 0.00 | 0.00 | 37 | 1007.2 |
| 20260509234536 | 32 | 179 | 6.4 | 14.5 | 0.00 | 0.00 | 0.00 | 36 | 1007.2 |
| 20260509233033 | 32 | 239 | 9.7 | 16.1 | 0.00 | 0.00 | 0.00 | 36 | 1007.3 |
| 20260509231531 | 31 | 173 | 3.2 | 16.1 | 0.00 | 0.00 | 0.00 | 38 | 1007.4 |
| 20260509230034 | 31 | 180 | 8.0 | 14.5 | 0.00 | 0.00 | 0.00 | 35 | 1007.6 |
| 20260509224517 | 32 | 138 | 9.7 | 19.3 | 0.00 | 0.00 | 0.00 | 36 | 1007.5 |
| 20260509223016 | 32 | 200 | 3.2 | 16.1 | 0.00 | 0.00 | 0.00 | 34 | 1007.5 |
| 20260509221518 | 32 | 193 | 6.4 | 17.7 | 0.00 | 0.00 | 0.00 | 35 | 1007.7 |
| 20260509220019 | 32 | 223 | 3.2 | 14.5 | 0.00 | 0.00 | 0.00 | 33 | 1007.7 |
| 20260509214510 | 32 | 178 | 8.0 | 19.3 | 0.00 | 0.00 | 0.00 | 34 | 1007.9 |
| 20260509213020 | 32 | 198 | 8.0 | 17.7 | 0.00 | 0.00 | 0.00 | 34 | 1008.1 |
| 20260509211508 | 32 | 139 | 9.7 | 12.9 | 0.00 | 0.00 | 0.00 | 33 | 1008.3 |
| 20260509210004 | 32 | 211 | 6.4 | 22.5 | 0.00 | 0.00 | 0.00 | 35 | 1008.6 |
| 20260509204551 | 32 | 169 | 4.8 | 24.1 | 0.00 | 0.00 | 0.00 | 36 | 1008.7 |
| 20260509203059 | 32 | 201 | 8.0 | 16.1 | 0.00 | 0.00 | 0.00 | 40 | 1008.9 |
| 20260509201546 | 32 | 217 | 4.8 | 16.1 | 0.00 | 0.00 | 0.00 | 40 | 1009.2 |
| 20260509200042 | 32 | 232 | 4.8 | 19.3 | 0.00 | 0.00 | 0.00 | 40 | 1009.4 |
| 20260509194540 | 31 | 215 | 4.8 | 19.3 | 0.00 | 0.00 | 0.00 | 41 | 1009.7 |
| 20260509193040 | 31 | 241 | 6.4 | 17.7 | 0.00 | 0.00 | 0.00 | 42 | 1009.8 |
| 20260509191551 | 32 | 217 | 8.0 | 17.7 | 0.00 | 0.00 | 0.00 | 41 | 1009.9 |
| 20260509190034 | 31 | 211 | 8.0 | 17.7 | 0.00 | 0.00 | 0.00 | 43 | 1010.2 |
| 20260509184532 | 30 | 215 | 8.0 | 17.7 | 0.00 | 0.00 | 0.00 | 47 | 1010.4 |
| 20260509183027 | 30 | 115 | 1.6 | 14.5 | 0.00 | 0.00 | 0.00 | 49 | 1010.6 |
| 20260509181516 | 30 | 226 | 4.8 | 14.5 | 0.00 | 0.00 | 0.00 | 49 | 1010.9 |
| 20260509180016 | 30 | 206 | 4.8 | 16.1 | 0.00 | 0.00 | 0.00 | 50 | 1011.2 |
| 20260509174520 | 29 | 223 | 6.4 | 17.7 | 0.00 | 0.00 | 0.00 | 49 | 1011.4 |
| 20260509173009 | 29 | 194 | 6.4 | 14.5 | 0.00 | 0.00 | 0.00 | 49 | 1011.3 |
| 20260509171506 | 28 | 173 | 4.8 | 12.9 | 0.00 | 0.00 | 0.00 | 54 | 1011.5 |
| 20260509170009 | 28 | 227 | 4.8 | 12.9 | 0.00 | 0.00 | 0.00 | 56 | 1011.7 |
| 20260509164544 | 28 | 242 | 1.6 | 8.0 | 0.00 | 0.00 | 0.00 | 60 | 1011.8 |
| 20260509163041 | 27 | 229 | 1.6 | 9.7 | 0.00 | 0.00 | 0.00 | 63 | 1011.8 |
| 20260509161526 | 27 | 188 | 4.8 | 11.3 | 0.00 | 0.00 | 0.00 | 1011.9 | |
| 20260509160023 | 26 | 209 | 3.2 | 9.7 | 0.00 | 0.00 | 0.00 | 64 | 1011.9 |
| 20260509154523 | 26 | 238 | 1.6 | 11.3 | 0.00 | 0.00 | 0.00 | 65 | 1012.2 |
| 20260509153022 | 26 | 217 | 4.8 | 11.3 | 0.00 | 0.00 | 0.00 | 65 | 1012.1 |
| 20260509151516 | 25 | 241 | 3.2 | 8.0 | 0.00 | 0.00 | 0.00 | 67 | 1012.3 |
| 20260509150013 | 25 | 245 | 3.2 | 8.0 | 0.00 | 0.00 | 0.00 | 70 | 1012.5 |
| 20260509144508 | 23 | 242 | 0.0 | 8.0 | 0.00 | 0.00 | 0.00 | 74 | 1012.7 |
| 20260509143419 | 27 | 204 | 1.6 | 0.0 | 0.00 | 0.86 | 0.00 | ||
| 20260509143007 | 23 | 200 | 0.0 | 8.0 | 0.00 | 0.00 | 0.00 | 77 | 1012.8 |
| 20260509141551 | 22 | 171 | 0.0 | 6.4 | 0.00 | 0.00 | 0.00 | 78 | 1012.8 |
| 20260509140050 | 22 | 166 | 0.0 | 8.0 | 0.00 | 0.00 | 0.00 | 79 | 1012.6 |
| 20260509135918 | 25 | 169 | 8.0 | 3.2 | 0.00 | 0.86 | 0.00 | ||
| 20260509134549 | 21 | 224 | 0.0 | 3.2 | 0.00 | 0.00 | 0.00 | 81 | 1012.6 |
| 20260509133047 | 20 | 32 | 0.0 | 3.2 | 0.00 | 0.00 | 0.00 | 84 | 1012.5 |
| 20260509131546 | 18 | 32 | 0.0 | 1.6 | 0.00 | 0.00 | 0.00 | 85 | 1012.4 |
| 20260509130053 | 17 | 32 | 0.0 | 0.0 | 0.00 | 0.00 | 0.00 | 86 | 1012.4 |
| 20260509124552 | 16 | 32 | 0.0 | 1.6 | 0.00 | 0.00 | 0.00 | 86 | 1012.5 |
| 20260509123043 | 15 | 32 | 0.0 | 3.2 | 0.00 | 0.00 | 0.00 | 85 | 1012.4 |
| 20260509121533 | 15 | 32 | 0.0 | 3.2 | 0.00 | 0.00 | 0.00 | 85 | 1011.8 |
| 20260509120031 | 15 | 46 | 0.0 | 4.8 | 0.00 | 0.00 | 0.00 | 85 | 1011.9 |
| 20260509114529 | 15 | 90 | 1.6 | 6.4 | 0.00 | 0.00 | 0.00 | 85 | 1011.9 |
| 20260509113030 | 16 | 123 | 1.6 | 4.8 | 0.00 | 0.00 | 0.00 | 85 | 1011.6 |
| 20260509111528 | 16 | 175 | 6.4 | 12.9 | 0.00 | 0.00 | 0.00 | 85 | 1011.3 |
| 20260509110027 | 15 | 173 | 6.4 | 12.9 | 0.00 | 0.00 | 0.00 | 85 | 1011.2 |